Change the Weather History Date:

Wednesday, November 27, 2013

  Actual Average Record
Temperature  
Mean Temperature 37 °F -  
Max Temperature 41 °F 36 °F 46 °F (2003)
Min Temperature 33 °F 30 °F 24 °F (1997)
Degree Days  
Heating Degree Days 28    
Moisture  
Dew Point 33 °F    
Average Humidity 87    
Maximum Humidity 100    
Minimum Humidity 75    
Precipitation  
Precipitation 0.00 in - - ()
Sea Level Pressure  
Sea Level Pressure 30.02 in    
Wind  
Wind Speed 6 mph (North)    
Max Wind Speed 16 mph    
Max Gust Speed 20 mph    
Visibility 10 miles    
Events      
Averages and records for this station are not official NWS values.
T = Trace of Precipitation, MM = Missing Value Source: NWS Daily Summary

Daily Weather History Graph

Daily Weather History Graph

Search for Another Location

Airport or City:

Trip Planner

Search our weather history database for the weather conditions in past years. The results will help you decide how hot, cold, wet, or windy it might be!

Date:

Astronomy

Nov. 27, 2013 Rise Set
Actual Time 9:39 AM AKST 5:20 PM AKST
Civil Twilight 8:55 AM AKST 6:03 PM AKST
Nautical Twilight 8:08 AM AKST 6:50 PM AKST
Astronomical Twilight 7:24 AM AKST 7:34 PM AKST
Moon 2:57 AM AKST (11/27) 2:53 PM AKST (11/27)
Length of Visible Light 9h 08m
Length of Day
7h 41m
Waning Crescent, 30% of the Moon is Illuminated
Nov 27
Waning Crescent
Dec 2
New
Dec 9
First Quarter
Dec 17
Full
Dec 25
Last Quarter

Hourly Weather History & Observations

Time (AKST) Temp. Windchill Dew Point Humidity Pressure Visibility Wind Dir Wind Speed Gust Speed Precip Events Conditions
12:16 AM 35.6 °F 30.7 °F 32.0 °F 87% 30.09 in 10.0 mi WNW 5.8 mph - N/A   Clear
12:36 AM 33.8 °F - 32.0 °F 93% 30.09 in 10.0 mi Calm Calm - N/A   Clear
12:56 AM 33.8 °F - 30.2 °F 87% 30.09 in 10.0 mi Calm Calm - N/A   Clear
1:16 AM 33.8 °F - 32.0 °F 93% 30.09 in 10.0 mi Calm Calm - N/A   Clear
1:36 AM 33.8 °F 30.8 °F 32.0 °F 93% 30.09 in 10.0 mi North 3.5 mph - N/A   Clear
1:56 AM 33.8 °F 30.8 °F 32.0 °F 93% 30.08 in 10.0 mi North 3.5 mph - N/A   Clear
2:16 AM 33.8 °F 30.8 °F 32.0 °F 93% 30.08 in 10.0 mi NW 3.5 mph - N/A   Clear
2:36 AM 33.8 °F 28.6 °F 32.0 °F 93% 30.07 in 10.0 mi NW 5.8 mph - N/A   Clear
2:56 AM 35.6 °F 28.6 °F 33.8 °F 93% 30.07 in 10.0 mi NNW 9.2 mph - N/A   Clear
3:16 AM 35.6 °F 27.5 °F 33.8 °F 93% 30.07 in 10.0 mi NNW 11.5 mph - N/A   Clear
3:36 AM 35.6 °F 28.6 °F 33.8 °F 93% 30.07 in 10.0 mi NNW 9.2 mph - N/A   Clear
3:56 AM 35.6 °F 27.5 °F 33.8 °F 93% 30.06 in 10.0 mi NNW 11.5 mph - N/A   Clear
4:16 AM 35.6 °F 29.2 °F 33.8 °F 93% 30.06 in 10.0 mi WNW 8.1 mph - N/A   Partly Cloudy
4:36 AM 35.6 °F 29.9 °F 33.8 °F 93% 30.07 in 10.0 mi NW 6.9 mph - N/A   Partly Cloudy
4:56 AM 33.8 °F 28.6 °F 33.8 °F 100% 30.06 in 10.0 mi WNW 5.8 mph - N/A   Scattered Clouds
5:16 AM 35.6 °F 29.9 °F 33.8 °F 93% 30.07 in 10.0 mi NW 6.9 mph - N/A   Partly Cloudy
5:36 AM 35.6 °F 28.6 °F 33.8 °F 93% 30.06 in 10.0 mi NNW 9.2 mph - N/A   Clear
5:56 AM 35.6 °F 27.5 °F 33.8 °F 93% 30.06 in 10.0 mi NNW 11.5 mph - N/A   Clear
6:16 AM 35.6 °F 27.1 °F 33.8 °F 93% 30.06 in 10.0 mi NNW 12.7 mph - N/A   Clear
6:36 AM 35.6 °F 27.5 °F 33.8 °F 93% 30.05 in 10.0 mi NNW 11.5 mph - N/A   Clear
6:56 AM 35.6 °F 27.5 °F 33.8 °F 93% 30.05 in 10.0 mi North 11.5 mph - N/A   Clear
7:16 AM 37.4 °F 30.8 °F 33.8 °F 87% 30.05 in 10.0 mi NNW 9.2 mph - N/A   Clear
7:36 AM 37.4 °F 30.3 °F 33.8 °F 87% 30.05 in 10.0 mi North 10.4 mph - N/A   Clear
7:56 AM 37.4 °F 32.1 °F 33.8 °F 87% 30.05 in 10.0 mi North 6.9 mph - N/A   Clear
8:16 AM 37.4 °F 31.4 °F 33.8 °F 87% 30.05 in 10.0 mi North 8.1 mph - N/A   Clear
8:36 AM 37.4 °F 32.1 °F 33.8 °F 87% 30.05 in 10.0 mi NNW 6.9 mph - N/A   Clear
8:56 AM 35.6 °F - 33.8 °F 93% 30.06 in 10.0 mi Calm Calm - N/A   Partly Cloudy
9:16 AM 35.6 °F - 33.8 °F 93% 30.06 in 10.0 mi Calm Calm - N/A   Scattered Clouds
9:36 AM 35.6 °F - 32.0 °F 87% 30.06 in 10.0 mi Calm Calm - N/A   Scattered Clouds
9:56 AM 35.6 °F - 33.8 °F 93% 30.06 in 10.0 mi Calm Calm - N/A   Scattered Clouds
10:16 AM 35.6 °F - 33.8 °F 93% 30.07 in 10.0 mi Calm Calm - N/A   Scattered Clouds
10:36 AM 35.6 °F - 33.8 °F 93% 30.06 in 10.0 mi Calm Calm - N/A   Scattered Clouds
10:56 AM 35.6 °F - 33.8 °F 93% 30.06 in 10.0 mi Calm Calm - N/A   Mostly Cloudy
11:16 AM 35.6 °F - 33.8 °F 93% 30.06 in 10.0 mi Calm Calm - N/A   Mostly Cloudy
11:36 AM 35.6 °F - 33.8 °F 93% 30.06 in 10.0 mi Calm Calm - N/A   Mostly Cloudy
11:56 AM 37.4 °F - 33.8 °F 87% 30.06 in 10.0 mi Calm Calm - N/A   Mostly Cloudy
12:16 PM 39.2 °F 35.9 °F 35.6 °F 87% 30.05 in 10.0 mi North 4.6 mph - N/A   Mostly Cloudy
12:36 PM 39.2 °F 32.5 °F 35.6 °F 87% 30.04 in 10.0 mi NNE 10.4 mph - N/A   Mostly Cloudy
12:56 PM 39.2 °F 35.0 °F 35.6 °F 87% 30.03 in 10.0 mi NNE 5.8 mph - N/A   Mostly Cloudy
1:16 PM 39.2 °F 33.6 °F 33.8 °F 81% 30.03 in 10.0 mi NNE 8.1 mph - N/A   Mostly Cloudy
1:36 PM 39.2 °F 34.2 °F 33.8 °F 81% 30.03 in 10.0 mi NNE 6.9 mph - N/A   Mostly Cloudy
1:56 PM 41.0 °F 35.8 °F 33.8 °F 76% 30.02 in 10.0 mi North 8.1 mph - N/A   Mostly Cloudy
2:16 PM 39.2 °F 34.2 °F 33.8 °F 81% 30.02 in 10.0 mi NNE 6.9 mph - N/A   Mostly Cloudy
2:36 PM 39.2 °F 34.2 °F 33.8 °F 81% 30.01 in 10.0 mi NNE 6.9 mph - N/A   Mostly Cloudy
2:56 PM 41.0 °F 37.1 °F 33.8 °F 76% 30.00 in 10.0 mi NNE 5.8 mph - N/A   Scattered Clouds
3:16 PM 41.0 °F 38.0 °F 33.8 °F 76% 30.00 in 10.0 mi NNE 4.6 mph - N/A   Scattered Clouds
3:36 PM 41.0 °F 37.1 °F 33.8 °F 76% 30.00 in 10.0 mi NNE 5.8 mph - N/A   Scattered Clouds
3:56 PM 41.0 °F 37.1 °F 33.8 °F 76% 30.00 in 10.0 mi NNE 5.8 mph - N/A   Scattered Clouds
4:16 PM 39.2 °F 34.2 °F 35.6 °F 87% 29.99 in 10.0 mi NNW 6.9 mph - N/A   Scattered Clouds
4:36 PM 39.2 °F 31.6 °F 35.6 °F 87% 29.99 in 10.0 mi NNW 12.7 mph - N/A   Scattered Clouds
4:56 PM 39.2 °F 32.0 °F 35.6 °F 87% 29.98 in 10.0 mi North 11.5 mph - N/A   Scattered Clouds
5:16 PM 37.4 °F 32.8 °F 33.8 °F 87% 29.97 in 10.0 mi NNE 5.8 mph - N/A   Scattered Clouds
5:36 PM 37.4 °F 32.1 °F 33.8 °F 87% 29.97 in 10.0 mi NNE 6.9 mph - N/A   Scattered Clouds
5:56 PM 37.4 °F 34.9 °F 32.0 °F 81% 29.98 in 10.0 mi East 3.5 mph - N/A   Scattered Clouds
6:16 PM 37.4 °F 32.8 °F 32.0 °F 81% 29.98 in 10.0 mi ENE 5.8 mph - N/A   Scattered Clouds
6:36 PM 37.4 °F 32.1 °F 32.0 °F 81% 29.97 in 10.0 mi NE 6.9 mph - N/A   Scattered Clouds
6:56 PM 37.4 °F 33.8 °F 32.0 °F 81% 29.98 in 10.0 mi NE 4.6 mph - N/A   Scattered Clouds
7:16 PM 37.4 °F 30.8 °F 32.0 °F 81% 29.97 in 10.0 mi North 9.2 mph - N/A   Scattered Clouds
7:36 PM 37.4 °F 28.2 °F 32.0 °F 81% 29.96 in 10.0 mi North 16.1 mph - N/A   Scattered Clouds
7:56 PM 37.4 °F 29.3 °F 33.8 °F 87% 29.96 in 10.0 mi North 12.7 mph - N/A   Scattered Clouds
8:16 PM 37.4 °F 30.3 °F 30.2 °F 75% 29.96 in 10.0 mi NNE 10.4 mph 16.1 mph N/A   Clear
8:36 PM 37.4 °F 30.8 °F 32.0 °F 81% 29.96 in 10.0 mi NNE 9.2 mph - N/A   Clear
8:56 PM 37.4 °F 30.8 °F 32.0 °F 81% 29.96 in 10.0 mi NNE 9.2 mph - N/A   Clear
9:16 PM 37.4 °F 32.1 °F 32.0 °F 81% 29.95 in 10.0 mi NNE 6.9 mph - N/A   Clear
9:36 PM 37.4 °F 30.3 °F 33.8 °F 87% 29.94 in 10.0 mi NNE 10.4 mph 16.1 mph N/A   Clear
9:56 PM 37.4 °F 31.4 °F 32.0 °F 81% 29.95 in 10.0 mi NNE 8.1 mph - N/A   Clear
10:16 PM 37.4 °F 28.9 °F 30.2 °F 75% 29.94 in 10.0 mi NNE 13.8 mph - N/A   Clear
10:36 PM 37.4 °F 29.8 °F 30.2 °F 75% 29.95 in 10.0 mi NNE 11.5 mph - N/A   Clear
10:56 PM 35.6 °F 29.2 °F 30.2 °F 81% 29.95 in 10.0 mi NNE 8.1 mph - N/A   Clear
11:16 PM 35.6 °F 30.7 °F 30.2 °F 81% 29.95 in 10.0 mi North 5.8 mph - N/A   Clear
11:36 PM 35.6 °F 29.9 °F 30.2 °F 81% 29.95 in 10.0 mi North 6.9 mph - N/A   Clear
11:56 PM 35.6 °F 25.9 °F 32.0 °F 87% 29.94 in 10.0 mi North 16.1 mph 19.6 mph N/A   Partly Cloudy